TimeCST,TemperatureF,Dew PointF,Humidity,Sea Level PressureIn,VisibilityMPH,Wind Direction,Wind SpeedMPH,Gust SpeedMPH,PrecipitationIn,Events,Conditions,WindDirDegrees,DateUTC
12:07 AM,30.2,30.2,100,29.72,3.0,ESE,11.5,-,0.01,Rain,Light Freezing Rain,110,2013-01-29 06:07:00
12:16 AM,30.2,30.2,100,29.71,2.0,ESE,10.4,-,0.10,Rain,Light Freezing Rain,110,2013-01-29 06:16:00
12:27 AM,30.2,30.2,100,29.68,3.0,East,9.2,-,0.17,Rain,Light Freezing Rain,90,2013-01-29 06:27:00
12:54 AM,30.9,30.0,96,29.70,4.0,ESE,12.7,-,0.19,Rain,Light Freezing Rain,110,2013-01-29 06:54:00
1:06 AM,32.0,30.2,93,29.64,4.0,ESE,13.8,-,0.00,,Overcast,120,2013-01-29 07:06:00
1:54 AM,32.0,30.9,96,29.68,5.0,ESE,13.8,-,0.00,,Overcast,120,2013-01-29 07:54:00
2:27 AM,32.0,30.2,93,29.62,2.0,ESE,13.8,-,0.06,,Overcast,120,2013-01-29 08:27:00
2:38 AM,32.0,30.2,93,29.60,4.0,ESE,12.7,-,0.07,,Overcast,120,2013-01-29 08:38:00
2:54 AM,32.0,30.9,96,29.62,4.0,SE,19.6,24.2,0.07,,Overcast,130,2013-01-29 08:54:00
3:01 AM,32.0,30.2,93,29.56,4.0,SE,18.4,24.2,0.00,,Overcast,130,2013-01-29 09:01:00
3:54 AM,33.1,33.1,100,29.62,2.5,SE,10.4,-,0.01,Rain,Light Rain,140,2013-01-29 09:54:00
4:14 AM,33.8,33.8,100,29.57,1.2,SE,9.2,-,0.02,Rain,Rain,130,2013-01-29 10:14:00
4:21 AM,33.8,33.8,100,29.55,1.0,ESE,11.5,-,0.03,Rain,Light Rain,120,2013-01-29 10:21:00
4:36 AM,33.8,33.8,100,29.55,1.2,SE,9.2,-,0.03,Rain,Light Rain,130,2013-01-29 10:36:00
4:54 AM,33.1,33.1,100,29.57,1.0,ESE,9.2,-,0.04,Rain,Light Rain,110,2013-01-29 10:54:00
5:07 AM,33.8,33.8,100,29.52,0.8,ESE,9.2,-,0.01,Rain,Light Rain,110,2013-01-29 11:07:00
5:54 AM,34.0,34.0,100,29.56,0.5,ESE,5.8,-,0.01,Fog-Rain,Light Rain,120,2013-01-29 11:54:00
6:54 AM,34.0,34.0,100,29.54,0.2,SE,8.1,-,0.00,Fog,Fog,130,2013-01-29 12:54:00
7:54 AM,35.1,35.1,100,29.54,0.2,SE,4.6,-,N/A,Fog,Fog,140,2013-01-29 13:54:00
8:54 AM,36.0,36.0,100,29.54,0.2,South,4.6,-,N/A,Fog,Fog,190,2013-01-29 14:54:00
9:54 AM,37.0,37.0,100,29.51,0.2,Calm,Calm,-,N/A,Fog,Fog,0,2013-01-29 15:54:00
10:54 AM,37.0,37.0,100,29.56,0.8,West,6.9,-,N/A,,Overcast,260,2013-01-29 16:54:00
11:01 AM,37.4,37.4,100,29.52,1.2,West,9.2,-,N/A,,Overcast,270,2013-01-29 17:01:00
11:32 AM,35.6,35.6,100,29.55,2.5,West,8.1,-,N/A,,Overcast,270,2013-01-29 17:32:00
11:54 AM,36.0,35.1,97,29.56,2.0,WNW,9.2,-,N/A,,Overcast,290,2013-01-29 17:54:00
12:14 PM,35.6,35.6,100,29.53,3.0,West,12.7,-,N/A,,Overcast,280,2013-01-29 18:14:00
12:45 PM,35.6,33.8,93,29.52,2.5,WNW,13.8,20.7,N/A,,Overcast,290,2013-01-29 18:45:00
12:54 PM,34.0,34.0,100,29.55,2.0,WNW,12.7,-,N/A,,Overcast,300,2013-01-29 18:54:00
1:13 PM,33.8,33.8,100,29.53,3.0,WNW,16.1,-,N/A,,Overcast,300,2013-01-29 19:13:00
1:54 PM,33.1,32.0,96,29.58,7.0,WNW,11.5,19.6,N/A,,Overcast,300,2013-01-29 19:54:00
2:54 PM,33.1,32.0,96,29.57,5.0,NW,10.4,-,N/A,,Overcast,320,2013-01-29 20:54:00
3:19 PM,33.8,32.0,93,29.53,5.0,NW,8.1,-,N/A,,Overcast,310,2013-01-29 21:19:00
3:54 PM,33.1,32.0,96,29.59,5.0,NW,8.1,-,N/A,,Overcast,310,2013-01-29 21:54:00
4:54 PM,33.1,30.9,92,29.59,8.0,NNW,8.1,-,N/A,,Overcast,330,2013-01-29 22:54:00
5:54 PM,33.1,30.9,92,29.59,10.0,North,9.2,-,N/A,,Overcast,350,2013-01-29 23:54:00
6:54 PM,33.1,30.0,89,29.61,10.0,North,9.2,-,N/A,,Overcast,350,2013-01-30 00:54:00
7:54 PM,33.1,30.0,89,29.57,10.0,North,10.4,-,N/A,,Overcast,10,2013-01-30 01:54:00
8:54 PM,33.1,28.9,85,29.60,10.0,North,10.4,-,N/A,,Overcast,360,2013-01-30 02:54:00
9:23 PM,33.8,28.4,81,29.53,10.0,North,9.2,-,N/A,,Overcast,10,2013-01-30 03:23:00
9:54 PM,33.1,28.0,82,29.59,10.0,North,6.9,-,N/A,,Overcast,10,2013-01-30 03:54:00
10:54 PM,33.1,28.0,82,29.60,10.0,North,8.1,-,N/A,,Overcast,10,2013-01-30 04:54:00
11:07 PM,33.8,28.4,81,29.56,10.0,North,11.5,-,N/A,,Overcast,360,2013-01-30 05:07:00
11:54 PM,32.0,28.0,85,29.59,10.0,North,10.4,18.4,N/A,,Overcast,10,2013-01-30 05:54:00